Starlink 1265

operational
NORAD ID: 45406 Int'l Des: 2020-019 Owner: SPXS Country: US Constellation: starlink
LEOCIRCULARSTARLINK_TYPE

Über Starlink 1265

Beschreibung wird geladen...

Live-Position

3D-Globus wird geladen...

Nächste Überflüge

Höhenverlauf

Altitude vs Time

uPlot chart will show altitude changes over time

Zweizeiliger Elementsatz

1 45406U 20019AY 25350.17879953 .00000755 00000-0 69555-4 0 9996
2 45406 53.0538 151.5142 0001187 92.6756 267.4369 15.06395481317275
Epoch: 16. Dez. 2025 • Age: 21 hours

Aktueller Status

Höhe 547.1 km
Geschwindigkeit 7.59 km/s
Subsatellitenpunkt 15.57°N, 155.97°W
Startdatum 18. März 2020
Alter 5.7 years
Typ internet

Technische Details

Klassifizierung Payload
Masse 260.00 kg
Trockenmasse 248.00 kg
Gesamtmasse 260.00 kg
Länge 0.20 m
Durchmesser 2.80 m
Spannweite 9.00 m
Form Box + pan
Hersteller SPXS
Bus-Typ Starlink
Phasenstatus In Orbit
Besitzer/Staat SPXS/US

Große Konstellationen

Loading constellations...